IRIDIUM 155

Last updated on Fri Sep 11 2026 00:03:06 GMT+0000 (Coordinated Universal Time)

1 43573U 18061E 26253.64729567 .00000072 00000+0 18710-4 0 9991 2 43573 86.3996 20.9252 0002160 91.3779 268.7664 14.34217533425609
UTC large
Height (km)
Speed (km/s)
/
Latitude / Longitude
Inclination (degrees)
Orbital Period (minutes)
Azimuth
Elevation
Range (km)
Doppler Factor

Next 0 passes for location: London (51.5072 / 0.1276)

No passes found over London.
IRIDIUM 155